Weather History for KJER - May, 2014

Change the Weather History Date:

Monday, May 5, 2014

  Actual Average Record
Temperature  
Mean Temperature 55 °F 52 °F  
Max Temperature 64 °F 64 °F 92 °F (1966)
Min Temperature 46 °F 39 °F 27 °F (1982)
Degree Days  
Heating Degree Days 10 13  
Month to date heating degree days 23 70  
Since 1 July heating degree days 5910 6273  
Cooling Degree Days 0 0  
Month to date cooling degree days 2 0  
Year to date cooling degree days 2 0  
Growing Degree Days 4 (Base 50)    
Moisture  
Dew Point 35 °F    
Average Humidity 50    
Maximum Humidity 66    
Minimum Humidity 34    
Precipitation  
Precipitation 0.00 in 0.05 in 0.32 in (1995)
Month to date precipitation 0.00 0.28  
Year to date precipitation 4.34 4.64  
Sea Level Pressure  
Sea Level Pressure 29.80 in    
Wind  
Wind Speed 11 mph (SW)    
Max Wind Speed 21 mph    
Max Gust Speed 26 mph    
Visibility 10 miles    
Events      
T = Trace of Precipitation, MM = Missing Value Source: NWS Daily Summary

Daily Weather History Graph

Daily Weather History Graph

Search for Another Location

Airport or City:

Trip Planner

Search our weather history database for the weather conditions in past years. The results will help you decide how hot, cold, wet, or windy it might be!

Date:

Astronomy

May. 05, 2014 Rise Set
Actual Time 6:26 AM MDT 8:42 PM MDT
Civil Twilight 5:55 AM MDT 9:14 PM MDT
Nautical Twilight 5:16 AM MDT 9:53 PM MDT
Astronomical Twilight 4:34 AM MDT 10:36 PM MDT
Moon 11:51 AM MDT (5/5) 1:29 AM MDT (5/5)
Length of Visible Light 15h 18m
Length of Day
14h 16m
Waxing Crescent, 37% of the Moon is Illuminated
May 5
Waxing Crescent
May 6
First Quarter
May 14
Full
May 21
Last Quarter
May 28
New

Hourly Weather History & Observations

Time (MDT) Temp. Dew Point Humidity Pressure Visibility Wind Dir Wind Speed Gust Speed Precip Events Conditions
12:53 AM 53.1 °F 37.9 °F 57% 29.76 in 10.0 mi South 8.1 mph - N/A   Clear
1:53 AM 50.0 °F 39.0 °F 66% 29.78 in 10.0 mi SW 6.9 mph - N/A   Clear
2:53 AM 50.0 °F 37.9 °F 63% 29.78 in 10.0 mi SSW 8.1 mph - N/A   Clear
3:53 AM 48.9 °F 37.0 °F 64% 29.80 in 10.0 mi SSW 9.2 mph - N/A   Clear
4:53 AM 46.9 °F 36.0 °F 66% 29.81 in 10.0 mi SW 11.5 mph - N/A   Clear
5:53 AM 46.9 °F 35.1 °F 63% 29.83 in 10.0 mi SSW 10.4 mph - N/A   Clear
6:53 AM 46.9 °F 35.1 °F 63% 29.84 in 10.0 mi SW 8.1 mph - N/A   Clear
7:53 AM 48.9 °F 35.1 °F 59% 29.85 in 10.0 mi SW 8.1 mph - N/A   Clear
8:53 AM 50.0 °F 35.1 °F 57% 29.86 in 10.0 mi SW 12.7 mph - N/A   Clear
9:53 AM 50.0 °F 35.1 °F 57% 29.86 in 10.0 mi SW 12.7 mph - N/A   Clear
10:53 AM 52.0 °F 36.0 °F 54% 29.86 in 10.0 mi WSW 9.2 mph - N/A   Clear
12:53 PM 57.0 °F 35.1 °F 44% 29.83 in 10.0 mi SW 9.2 mph - N/A   Clear
1:53 PM 60.1 °F 36.0 °F 41% 29.81 in 10.0 mi WSW 12.7 mph - N/A   Clear
2:53 PM 63.0 °F 33.1 °F 33% 29.79 in 10.0 mi WSW 16.1 mph 24.2 mph N/A   Clear
3:53 PM 61.0 °F 33.1 °F 35% 29.78 in 10.0 mi West 15.0 mph 24.2 mph N/A   Partly Cloudy
4:53 PM 62.1 °F 33.1 °F 34% 29.76 in 10.0 mi West 13.8 mph - N/A   Partly Cloudy
5:53 PM 61.0 °F 32.0 °F 34% 29.76 in 10.0 mi West 15.0 mph - N/A   Scattered Clouds
6:53 PM 59.0 °F 32.0 °F 36% 29.76 in 10.0 mi West 16.1 mph - N/A   Overcast
7:53 PM 55.0 °F 34.0 °F 45% 29.75 in 10.0 mi West 11.5 mph - N/A   Clear
8:53 PM 51.1 °F 34.0 °F 52% 29.75 in 10.0 mi WSW 6.9 mph - N/A   Clear
10:53 PM 50.0 °F 34.0 °F 54% 29.77 in 10.0 mi SSE 6.9 mph - N/A   Partly Cloudy
11:53 PM 48.0 °F 32.0 °F 54% 29.74 in 10.0 mi WSW 9.2 mph - N/A   Partly Cloudy